Time,TemperatureF,DewpointF,PressureIn,WindDirection,WindDirectionDegrees,WindSpeedMPH,WindSpeedGustMPH,Humidity,HourlyPrecipIn,Conditions,Clouds,dailyrainin,SoftwareType,DateUTC
2013-01-09 00:11:00,33.3,25.2,30.13,WNW,292,1.6,-999.0,72,-99.99,,,0.00,Acu-Link.com,2013-01-09 05:11:00,
2013-01-09 00:26:00,32.7,24.7,30.14,WNW,292,1.6,-999.0,72,-99.99,,,0.00,Acu-Link.com,2013-01-09 05:26:00,
2013-01-09 00:41:00,32.7,24.7,30.13,NW,315,1.6,-999.0,72,-99.99,,,0.00,Acu-Link.com,2013-01-09 05:41:00,
2013-01-09 00:57:00,32.2,24.5,30.13,NW,315,1.6,-999.0,73,-99.99,,,0.00,Acu-Link.com,2013-01-09 05:57:00,
2013-01-09 01:12:00,32.7,24.7,30.13,NW,315,1.1,-999.0,72,-99.99,,,0.00,Acu-Link.com,2013-01-09 06:12:00,
2013-01-09 01:27:00,31.5,24.5,30.14,NW,315,0.0,-999.0,75,-99.99,,,0.00,Acu-Link.com,2013-01-09 06:27:00,
2013-01-09 01:42:00,30.4,24.4,30.14,WNW,292,0.0,-999.0,78,-99.99,,,0.00,Acu-Link.com,2013-01-09 06:42:00,
2013-01-09 01:58:00,30.9,24.6,30.14,NW,315,2.7,-999.0,77,-99.99,,,0.00,Acu-Link.com,2013-01-09 06:58:00,
2013-01-09 02:13:00,31.5,24.8,30.13,NNW,337,0.0,-999.0,76,-99.99,,,0.00,Acu-Link.com,2013-01-09 07:13:00,
2013-01-09 02:28:00,32.0,24.7,30.14,WNW,292,2.7,-999.0,74,-99.99,,,0.00,Acu-Link.com,2013-01-09 07:28:00,
2013-01-09 02:43:00,30.7,24.1,30.13,SSE,157,0.0,-999.0,76,-99.99,,,0.00,Acu-Link.com,2013-01-09 07:43:00,
2013-01-09 02:58:00,30.7,24.4,30.14,ESE,112,0.0,-999.0,77,-99.99,,,0.00,Acu-Link.com,2013-01-09 07:58:00,
2013-01-09 03:14:00,30.0,24.3,30.14,North,0,1.6,-999.0,79,-99.99,,,0.00,Acu-Link.com,2013-01-09 08:14:00,
2013-01-09 03:29:00,29.8,24.1,30.14,WSW,247,1.1,-999.0,79,-99.99,,,0.00,Acu-Link.com,2013-01-09 08:29:00,
2013-01-09 03:44:00,30.0,24.3,30.13,NNE,22,2.2,-999.0,79,-99.99,,,0.00,Acu-Link.com,2013-01-09 08:44:00,
2013-01-09 17:54:00,40.1,33.2,29.77,WSW,247,2.2,-999.0,76,-99.99,,,0.00,Acu-Link.com,2013-01-09 22:54:00,
2013-01-09 18:09:00,40.5,33.8,29.77,NNW,337,7.4,-999.0,77,-99.99,,,0.00,Acu-Link.com,2013-01-09 23:09:00,
2013-01-09 18:24:00,40.5,33.8,29.78,WNW,292,5.8,-999.0,77,-99.99,,,0.00,Acu-Link.com,2013-01-09 23:24:00,
2013-01-09 18:39:00,40.6,34.0,29.79,West,270,5.1,-999.0,77,-99.99,,,0.00,Acu-Link.com,2013-01-09 23:39:00,
2013-01-09 18:54:00,41.2,34.5,29.77,NNW,337,13.4,-999.0,77,-99.99,,,0.00,Acu-Link.com,2013-01-09 23:54:00,
2013-01-09 19:10:00,40.8,34.2,29.78,West,270,3.8,-999.0,77,-99.99,,,0.00,Acu-Link.com,2013-01-10 00:10:00,
2013-01-09 19:25:00,40.5,34.2,29.78,West,270,7.8,-999.0,78,-99.99,,,0.00,Acu-Link.com,2013-01-10 00:25:00,
2013-01-09 19:40:00,40.3,34.3,29.77,NE,45,4.3,-999.0,79,-99.99,,,0.00,Acu-Link.com,2013-01-10 00:40:00,
2013-01-09 19:55:00,40.5,34.5,29.77,NW,315,4.7,-999.0,79,-99.99,,,0.00,Acu-Link.com,2013-01-10 00:55:00,
2013-01-09 20:11:00,40.3,34.3,29.77,NW,315,5.1,-999.0,79,-99.99,,,0.00,Acu-Link.com,2013-01-10 01:11:00,
2013-01-09 20:26:00,40.1,33.8,29.78,West,270,3.1,-999.0,78,-99.99,,,0.00,Acu-Link.com,2013-01-10 01:26:00,
2013-01-09 20:41:00,40.3,34.0,29.78,NE,45,2.7,-999.0,78,-99.99,,,0.00,Acu-Link.com,2013-01-10 01:41:00,
2013-01-09 20:56:00,39.7,33.5,29.78,NNW,337,6.7,-999.0,78,-99.99,,,0.00,Acu-Link.com,2013-01-10 01:56:00,
2013-01-09 21:11:00,40.3,33.3,29.78,SW,225,12.5,-999.0,76,-99.99,,,0.00,Acu-Link.com,2013-01-10 02:11:00,
2013-01-09 21:27:00,41.0,33.4,29.77,West,270,4.3,-999.0,74,-99.99,,,0.00,Acu-Link.com,2013-01-10 02:27:00,
2013-01-09 21:42:00,41.0,32.7,29.76,NW,315,4.3,-999.0,72,-99.99,,,0.00,Acu-Link.com,2013-01-10 02:42:00,
2013-01-09 21:57:00,40.8,32.2,29.78,West,270,5.8,-999.0,71,-99.99,,,0.00,Acu-Link.com,2013-01-10 02:57:00,
2013-01-09 22:12:00,41.2,31.4,29.79,North,0,4.3,-999.0,68,-99.99,,,0.00,Acu-Link.com,2013-01-10 03:12:00,
2013-01-09 22:27:00,41.2,31.1,29.80,NW,315,7.4,-999.0,67,-99.99,,,0.00,Acu-Link.com,2013-01-10 03:27:00,
2013-01-09 22:43:00,41.5,29.1,29.81,West,270,4.3,-999.0,61,-99.99,,,0.00,Acu-Link.com,2013-01-10 03:43:00,
2013-01-09 22:58:00,41.2,27.5,29.80,East,90,7.4,-999.0,58,-99.99,,,0.00,Acu-Link.com,2013-01-10 03:58:00,
2013-01-09 23:13:00,41.4,26.4,29.81,NNW,337,4.3,-999.0,55,-99.99,,,0.00,Acu-Link.com,2013-01-10 04:13:00,
2013-01-09 23:28:00,41.4,26.0,29.80,SW,225,2.7,-999.0,54,-99.99,,,0.00,Acu-Link.com,2013-01-10 04:28:00,
2013-01-09 23:44:00,41.9,26.5,29.81,SW,225,3.1,-999.0,54,-99.99,,,0.00,Acu-Link.com,2013-01-10 04:44:00,
2013-01-09 23:59:00,41.7,26.8,29.81,SW,225,8.9,-999.0,55,-99.99,,,0.00,Acu-Link.com,2013-01-10 04:59:00,